COSMOS 2535 DEB, 44631

Orbit data source: Space-Track

COSMOS 2535 DEB, 44631 is space debris in SSO originally from a launch on Wed, 10 Jul 2019 UTC launched from the Plesetsk Missile And Space Complex (PKMTR). Debris objects in space refer to the collection of defunct objects orbiting the Earth. Examples of debris include non-operational satellites, rocket bodies, and fragments generated from explosions, collisions, or faulty payload assembly.

Loading next visibility...
Identifier
44631, 2019-039H
Orbit
SSO
Last TLE update
18 hours ago
Origin
Manufacturer
Unknown
Mission
Spacecraft
Bus & Motor
Unknown
Mass
Unknown
Launch date (UTC)
2019-07-10 (6 years ago)
Launch vehicle
Unknown
Launch site
Plesetsk Missile And Space Complex (PKMTR)
Object type
Payload
Rocket body
Debris
Shape & HBR
Unknown
Radar Cross Section
Small (<0.1 m²)

Expand to show TLE details & history

TLE from 18 hours ago
0 COSMOS 2535 DEB
1 44631U 19039H   25130.83342830  .00007435  00000-0  49998-3 0  9993
2 44631  97.5702 170.9740 0021790   8.0997 352.0578 15.06847381304213
Epoch: 2025-05-10T20:00Z
Definitive object data (Epoch: 2025-05-10T20:00:08.205Z)
Latitude
-0°
Longitude
2.07027°
Altitude
533.963 km
Speed
7.604 km/s
True Right ascension
11h 23m 53s
True Declination
0° 00' 00"
Sunlit
Object was in full shadow at TLE epoch
Visualization TLE readout
Latitude
82.39491°
Longitude
-95.34036°
Altitude
558.139 km
Speed
7.59 km/s
Apparent Right ascension
09h 33m 23s
Apparent Declination
28° 25' 53"
Sunlit
Object is in daylight
Visualization observer readout
Local Sidereal Time
22:14:01
Azimuth
9.564° NNE
Elevation
-21.002°
Doppler factor
1
Orbital elements
Apogee altitude
557.912 km
Perigee altitude
527.75 km
Semi-major axis
6,920.968 km
Eccentricity
0.002179
Inclination
97.5702°
RAAN
170.974°
Arg. of periapsis
8.0997°
True anomaly
352.02321°
Mean anomaly
352.0578°
Eccentric anomaly
352.04051°
Mean motion
3.76958 °/min
BSTAR
0.00049998
Orbital period
95.5 mins
Loading maneuver chart data...
Loading SW <> Apogee altitude chart data...

COSMOS 2535 DEB Visibility forecast

Observer location: undefined°, undefined°

Span
Click to sort rows by Start time (UTC) header in descending order
Start Az.
Max El. time (UTC)
Max El. Az.
Max El.
End time (UTC)
End Az.
7 mins2025-05-11 15:41:04.821Z5.524° NNE2025-05-11 15:44:04.821Z324.416° NNW41.22°2025-05-11 15:48:04.821Z202.762° SW
6 mins2025-05-12 02:25:04.821Z148.798° SSE2025-05-12 02:28:04.821Z55.041° ENE39.092°2025-05-12 02:31:04.821Z358.356° N
|